Location: *
(49.9853°N, 3.5569°E)
Time: 23:41:51
(UTC+00:00)

Envisat - Pass Details

Date: 22 September 2019
Orbit: 764 x 766 km, 98.1° (Epoch: 15 October)

Event Time Altitude Azimuth Distance (km) Brightness Sun altitude
Rises 18:09:30 0° 178° (S) 3,221 6.1 -4.8°
Reaches altitude 10° 18:11:51 10° 183° (S) 2,299 5.5 -5.2°
Maximum altitude 18:16:49 54° 260° (W) 933 4.0 -6.0°
Drops below altitude 10° 18:21:49 10° 338° (NNW) 2,315 5.9 -6.8°
Sets 18:24:11 0° 343° (NNW) 3,246 6.6 -7.2°
